Location: Asheville, NC
(35.6000°N, 82.5500°W)
Time: 23:06:20
(UTC-04:00)

DELFI C3 - Visible Passes

Search period start: 23 April 2018 00:00
Search period end: 03 May 2018 00:00
Orbit: 539 x 558 km, 97.5° (Epoch: 23 April)

Date Brightness Start Highest point End Pass type
(mag) Time Alt. Az. Time Alt. Az. Time Alt. Az.
23 Apr ? 22:26:12 60° NNW 22:26:12 60° NNW 22:29:29 10° NNW visible
24 Apr ? 22:21:20 67° N 22:21:20 67° N 22:24:45 10° NNW visible
25 Apr ? 22:16:28 68° NNE 22:16:28 68° NNE 22:20:01 10° N visible
26 Apr ? 22:11:37 64° NE 22:11:37 64° NE 22:15:16 10° N visible
27 Apr ? 22:06:45 57° ENE 22:06:45 57° ENE 22:10:29 10° N visible
28 Apr ? 22:01:53 49° ENE 22:01:55 49° ENE 22:05:42 10° N visible
29 Apr ? 21:57:00 42° E 21:57:11 42° ENE 22:00:53 10° N visible
29 Apr ? 23:32:41 11° W 23:32:41 11° W 23:33:07 10° WNW visible
30 Apr ? 21:52:08 36° E 21:52:27 37° ENE 21:56:04 10° N visible
30 Apr ? 23:27:48 12° W 23:27:48 12° W 23:29:00 10° WNW visible
01 May ? 21:47:15 31° E 21:47:43 32° ENE 21:51:13 10° N visible
01 May ? 23:22:56 14° W 23:22:56 14° W 23:24:40 10° WNW visible
02 May ? 21:42:22 27° E 21:42:59 28° ENE 21:46:20 10° NNE visible
02 May ? 23:18:03 16° W 23:18:03 16° W 23:20:13 10° NW visible
